Location: *
(48.8667°N, 2.3331°E)
Time: 17:58:40
(UTC+00:00)

Abrixas rocket - Pass Details

Date: 09 April 2020
Orbit: 345 x 352 km, 48.4° (Epoch: 25 May)

Event Time Altitude Azimuth Distance (km) Brightness Sun altitude
Rises 19:58:02 0° 280° (W) 2,161 7.3 -13.6°
Reaches altitude 10° 20:00:09 10° 271° (W) 1,319 5.7 -13.9°
Maximum altitude 20:02:52 34° 204° (SSW) 601 2.9 -14.3°
Enters shadow 20:03:47 27° 164° (SSE) 719 3.0 -14.5°
